Hourly Data Report for October 20, 2013

All times are specified in Local Standard Time (LST). Add 1 hour to adjust for Daylight Saving Time where and when it is observed.

PENTICTON A
BRITISH COLUMBIA

49°27'45.000" N
119°36'08.000" W
344.40 m
1126146
71889
YYF

Download Data

Hourly Data (October 2013)
Hourly Data Report for October 20, 2013
Temp Definition
°C
Dew Point Temp Definition
°C
Rel Hum Definition
%
Wind Dir Definition
10's deg

Wind Spd Definition
km/h
Visibility Definition
km
Stn Press Definition
kPa
Hmdx Definition


Wind Chill Definition


Weather Definition


TIME
00:00 Legend Double Dagger 3.9 2.7 92 2 7 24.1 98.10     LegendNANA
01:00 Legend Double Dagger 2.2 1.2 93 1 6 24.1 98.14     Mainly Clear
02:00 Legend Double Dagger 3.2 1.7 90 2 6 24.1 98.14     LegendNANA
03:00 Legend Double Dagger 2.4 1.2 92 36 8 24.1 98.13     LegendNANA
04:00 Legend Double Dagger 2.6 1.7 94 2 4 24.1 98.13     Mostly Cloudy
05:00 Legend Double Dagger 5.4 4.2 92 2 5 24.1 98.17     LegendNANA
06:00 Legend Double Dagger 5.6 4.4 92 2 5 16.1 98.19     LegendNANA
07:00 Legend Double Dagger 6.8 5.1 89 1 7 16.1 98.22     Cloudy
08:00 Legend Double Dagger 8.1 6.4 89 35 4 16.1 98.24     LegendNANA
09:00 Legend Double Dagger 9.5 7.5 87 36 11 16.1 98.26     LegendNANA
10:00 Legend Double Dagger 10.1 6.7 79 2 12 24.1 98.23     Mostly Cloudy
11:00 Legend Double Dagger 12.0 6.7 70 35 4 24.1 98.18     LegendNANA
12:00 Legend Double Dagger 12.7 7.4 70 16 3 24.1 98.09     LegendNANA
13:00 Legend Double Dagger 12.9 6.8 66 35 16 24.1 98.03     Mainly Clear
14:00 Legend Double Dagger 12.8 6.7 66 35 16 24.1 97.99     LegendNANA
15:00 Legend Double Dagger 13.1 7.2 67 36 13 24.1 97.95     LegendNANA
16:00 Legend Double Dagger 11.6 6.6 71 35 11 24.1 97.94     Mainly Clear
17:00 Legend Double Dagger 9.7 6.6 81 34 10 24.1 97.95     LegendNANA
18:00 Legend Double Dagger 7.5 5.5 87 1 8 24.1 98.00     LegendNANA
19:00 Legend Double Dagger 6.5 5.1 91 35 9 24.1 98.05     Clear
20:00 Legend Double Dagger 7.1 5.4 89 2 9 24.1 98.09     LegendNANA
21:00 Legend Double Dagger 6.4 4.9 90 1 11 24.1 98.11     LegendNANA
22:00 Legend Double Dagger 6.5 4.8 89 36 14 24.1 98.13     Clear
23:00 Legend Double Dagger 5.5 3.8 89 1 10 24.1 98.14     LegendNANA

Notes on Data Quality.

Legend

  • E = Estimated
  • M = Missing
  • NA = Not Available
  • ‡ = Partner data that is not subject to review by the National Climate Archives
Date modified: